Language: 


Des rapports , des résumés tant et plus, au choix de chacun....


Données statistiques de la station
Quotidien Rapport Février 22, 2017 Unités:  Métrique    Anglais   les deux
« Précédent Jour
Suivant Jour »
Quotidien Hebdomadaire Mensuel Annuel Actuel
  Haut: Bas: Moyen:
Température: 11.4 °C 9.9 °C 10.6 °C
Pt de rosée: 10.6 °C 9.1 °C 9.8 °C
Humidité: 96 % 92 % 95 %
Vitesse du vent: 49.7 km/h 18.3 km/h 30.8 km/h
Rafales: 55.8 km/h - -
Vent:- - WSW
Pression: 1013.1 hPa 1007.0 hPa -
Précipitation: 0.0 mm    
Historical Graphs
 
 
Données statistiques pour Février 22, 2017
Heure Température Point de rosée Pression Vent Vitesse du vent Refales Humidité Pluie (taux horaire)
00:04 10.2 °C 9.4 °C 1013.1 hPa WSW 33.5 km/h 43.6 km/h 95 % 0.0 mm
00:09 10.2 °C 9.4 °C 1013.1 hPa WSW 28.0 km/h 40.4 km/h 95 % 0.0 mm
00:14 10.1 °C 9.3 °C 1013.1 hPa WNW 23.8 km/h 40.4 km/h 95 % 0.0 mm
00:19 10.1 °C 9.3 °C 1013.1 hPa WSW 35.6 km/h 35.6 km/h 95 % 0.0 mm
00:24 10.1 °C 9.3 °C 1013.1 hPa West 21.6 km/h 35.6 km/h 95 % 0.0 mm
00:29 10.1 °C 9.3 °C 1013.1 hPa WSW 32.8 km/h 32.8 km/h 95 % 0.0 mm
00:34 10.1 °C 9.3 °C 1013.1 hPa WSW 29.1 km/h 33.1 km/h 95 % 0.0 mm
00:39 10.1 °C 9.3 °C 1013.1 hPa West 31.7 km/h 43.6 km/h 95 % 0.0 mm
00:44 10.0 °C 9.2 °C 1013.1 hPa WSW 28.8 km/h 43.6 km/h 95 % 0.0 mm
00:49 10.0 °C 9.2 °C 1013.1 hPa WSW 32.0 km/h 33.8 km/h 95 % 0.0 mm
00:54 10.0 °C 9.2 °C 1013.1 hPa West 31.7 km/h 36.4 km/h 95 % 0.0 mm
00:59 10.0 °C 9.2 °C 1013.1 hPa WSW 32.3 km/h 37.8 km/h 95 % 0.0 mm
01:04 10.0 °C 9.2 °C 1013.1 hPa WSW 28.8 km/h 37.8 km/h 95 % 0.0 mm
01:09 10.0 °C 9.2 °C 1013.1 hPa WSW 24.5 km/h 34.3 km/h 95 % 0.0 mm
01:14 9.9 °C 9.1 °C 1013.1 hPa WSW 32.0 km/h 35.6 km/h 95 % 0.0 mm
01:19 9.9 °C 9.1 °C 1013.1 hPa WSW 28.5 km/h 35.6 km/h 95 % 0.0 mm
01:24 9.9 °C 9.1 °C 1013.1 hPa WSW 27.7 km/h 30.9 km/h 95 % 0.0 mm
01:29 9.9 °C 9.1 °C 1013.1 hPa WSW 32.3 km/h 32.3 km/h 95 % 0.0 mm
01:34 9.9 °C 9.1 °C 1013.1 hPa WSW 20.9 km/h 32.3 km/h 95 % 0.0 mm
01:39 9.9 °C 9.1 °C 1013.1 hPa West 21.2 km/h 32.3 km/h 95 % 0.0 mm
01:44 9.9 °C 9.1 °C 1013.1 hPa WSW 27.4 km/h 27.4 km/h 95 % 0.0 mm
01:49 9.9 °C 9.1 °C 1013.1 hPa WSW 22.4 km/h 28.0 km/h 95 % 0.0 mm
01:54 9.9 °C 9.1 °C 1012.1 hPa WSW 31.7 km/h 32.0 km/h 95 % 0.0 mm
01:59 9.9 °C 9.1 °C 1012.1 hPa WSW 22.7 km/h 36.4 km/h 95 % 0.0 mm
02:04 9.9 °C 9.1 °C 1012.1 hPa WSW 29.9 km/h 36.4 km/h 95 % 0.0 mm
02:09 10.0 °C 9.2 °C 1013.1 hPa West 30.9 km/h 37.5 km/h 95 % 0.0 mm
02:14 10.0 °C 9.2 °C 1013.1 hPa WSW 28.5 km/h 37.5 km/h 95 % 0.0 mm
02:19 10.0 °C 9.2 °C 1013.1 hPa WSW 24.8 km/h 36.7 km/h 95 % 0.0 mm
02:24 10.0 °C 9.2 °C 1011.1 hPa WSW 30.9 km/h 30.9 km/h 95 % 0.0 mm
02:28 10.1 °C 9.3 °C 1011.1 hPa WSW 33.1 km/h 33.1 km/h 95 % 0.0 mm
02:34 10.1 °C 9.3 °C 1011.1 hPa WSW 20.6 km/h 33.1 km/h 95 % 0.0 mm
02:38 10.1 °C 9.3 °C 1011.1 hPa WSW 20.6 km/h 33.1 km/h 95 % 0.0 mm
02:44 10.1 °C 9.3 °C 1011.1 hPa WSW 23.8 km/h 38.9 km/h 95 % 0.0 mm
02:49 10.1 °C 9.3 °C 1011.1 hPa WSW 22.4 km/h 38.9 km/h 95 % 0.0 mm
02:54 10.1 °C 9.3 °C 1011.1 hPa West 25.9 km/h 35.2 km/h 95 % 0.0 mm
02:58 10.1 °C 9.3 °C 1011.1 hPa WSW 27.4 km/h 35.2 km/h 95 % 0.0 mm
03:04 10.1 °C 9.3 °C 1011.1 hPa WSW 28.8 km/h 28.8 km/h 95 % 0.0 mm
03:09 10.1 °C 9.3 °C 1010.0 hPa WSW 21.9 km/h 32.0 km/h 95 % 0.0 mm
03:14 10.2 °C 9.4 °C 1010.0 hPa West 30.6 km/h 32.0 km/h 95 % 0.0 mm
03:19 10.2 °C 9.4 °C 1010.0 hPa WSW 29.9 km/h 38.1 km/h 95 % 0.0 mm
03:24 10.3 °C 9.5 °C 1012.1 hPa WSW 31.4 km/h 38.1 km/h 95 % 0.0 mm
03:29 10.3 °C 9.5 °C 1012.1 hPa WSW 21.2 km/h 38.9 km/h 95 % 0.0 mm
03:34 10.4 °C 9.6 °C 1012.1 hPa WSW 25.9 km/h 38.9 km/h 95 % 0.0 mm
03:39 10.4 °C 9.6 °C 1010.0 hPa WSW 31.7 km/h 33.1 km/h 95 % 0.0 mm
03:44 10.4 °C 9.6 °C 1010.0 hPa WSW 28.0 km/h 37.8 km/h 95 % 0.0 mm
03:49 10.5 °C 9.7 °C 1010.0 hPa West 28.5 km/h 38.9 km/h 95 % 0.0 mm
03:54 10.5 °C 9.7 °C 1011.1 hPa WSW 30.2 km/h 38.9 km/h 95 % 0.0 mm
03:59 10.5 °C 9.7 °C 1011.1 hPa WSW 28.8 km/h 40.4 km/h 95 % 0.0 mm
04:04 10.6 °C 9.7 °C 1011.1 hPa West 36.7 km/h 45.1 km/h 94 % 0.0 mm
04:09 10.6 °C 9.7 °C 1011.1 hPa WSW 25.3 km/h 45.1 km/h 94 % 0.0 mm
04:14 10.6 °C 9.7 °C 1011.1 hPa WSW 31.4 km/h 44.6 km/h 94 % 0.0 mm
04:19 10.6 °C 9.7 °C 1011.1 hPa WSW 42.2 km/h 42.2 km/h 94 % 0.0 mm
04:24 10.6 °C 9.7 °C 1011.1 hPa WSW 22.4 km/h 42.2 km/h 94 % 0.0 mm
04:29 10.6 °C 9.7 °C 1011.1 hPa WSW 42.5 km/h 42.5 km/h 94 % 0.0 mm
04:34 10.6 °C 9.7 °C 1011.1 hPa WSW 24.5 km/h 42.5 km/h 94 % 0.0 mm
04:39 10.6 °C 9.7 °C 1011.1 hPa WSW 27.7 km/h 40.7 km/h 94 % 0.0 mm
04:44 10.6 °C 9.5 °C 1011.1 hPa WSW 32.8 km/h 47.1 km/h 93 % 0.0 mm
04:49 10.6 °C 9.5 °C 1011.1 hPa WSW 36.0 km/h 47.1 km/h 93 % 0.0 mm
04:54 10.6 °C 9.5 °C 1010.0 hPa WSW 31.7 km/h 41.0 km/h 93 % 0.0 mm
04:59 10.5 °C 9.4 °C 1010.0 hPa WSW 35.2 km/h 41.0 km/h 93 % 0.0 mm
05:04 10.5 °C 9.4 °C 1010.0 hPa WSW 30.9 km/h 41.7 km/h 93 % 0.0 mm
05:09 10.5 °C 9.4 °C 1010.0 hPa WSW 25.3 km/h 41.7 km/h 93 % 0.0 mm
05:14 10.5 °C 9.4 °C 1010.0 hPa WSW 37.0 km/h 39.3 km/h 93 % 0.0 mm
05:19 10.5 °C 9.4 °C 1010.0 hPa West 25.3 km/h 39.3 km/h 93 % 0.0 mm
05:24 10.5 °C 9.4 °C 1010.0 hPa WSW 30.6 km/h 39.3 km/h 93 % 0.0 mm
05:29 10.5 °C 9.4 °C 1010.0 hPa West 33.5 km/h 42.5 km/h 93 % 0.0 mm
05:34 10.5 °C 9.4 °C 1010.0 hPa WSW 28.8 km/h 42.5 km/h 93 % 0.0 mm
05:39 10.5 °C 9.4 °C 1010.0 hPa West 36.0 km/h 40.4 km/h 93 % 0.0 mm
05:44 10.5 °C 9.4 °C 1010.0 hPa WSW 24.5 km/h 38.9 km/h 93 % 0.0 mm
05:49 10.5 °C 9.4 °C 1010.0 hPa WSW 23.3 km/h 41.7 km/h 93 % 0.0 mm
05:54 10.5 °C 9.4 °C 1010.0 hPa WSW 30.6 km/h 41.7 km/h 93 % 0.0 mm
05:59 10.4 °C 9.4 °C 1010.0 hPa WSW 36.0 km/h 38.1 km/h 94 % 0.0 mm
06:04 10.4 °C 9.4 °C 1010.0 hPa WSW 24.8 km/h 41.4 km/h 94 % 0.0 mm
06:09 10.4 °C 9.4 °C 1010.0 hPa WSW 36.0 km/h 41.4 km/h 94 % 0.0 mm
06:14 10.4 °C 9.4 °C 1010.0 hPa WSW 23.0 km/h 40.4 km/h 94 % 0.0 mm
06:19 10.4 °C 9.4 °C 1010.0 hPa West 38.1 km/h 38.1 km/h 94 % 0.0 mm
06:24 10.4 °C 9.4 °C 1010.0 hPa WSW 30.6 km/h 38.1 km/h 94 % 0.0 mm
06:29 10.5 °C 9.6 °C 1010.0 hPa WSW 24.5 km/h 38.5 km/h 94 % 0.0 mm
06:34 10.4 °C 9.4 °C 1010.0 hPa West 30.6 km/h 38.5 km/h 94 % 0.0 mm
06:39 10.4 °C 9.4 °C 1010.0 hPa WSW 23.0 km/h 41.0 km/h 94 % 0.0 mm
06:44 10.4 °C 9.4 °C 1010.0 hPa WSW 20.1 km/h 41.4 km/h 94 % 0.0 mm
06:49 10.4 °C 9.4 °C 1010.0 hPa WSW 31.7 km/h 41.4 km/h 94 % 0.0 mm
06:54 10.4 °C 9.4 °C 1009.0 hPa West 32.3 km/h 38.9 km/h 94 % 0.0 mm
06:59 10.4 °C 9.4 °C 1009.0 hPa WSW 30.9 km/h 36.7 km/h 94 % 0.0 mm
07:04 10.4 °C 9.4 °C 1009.0 hPa WSW 27.0 km/h 32.3 km/h 94 % 0.0 mm
07:09 10.4 °C 9.4 °C 1010.0 hPa West 24.5 km/h 41.0 km/h 94 % 0.0 mm
07:14 10.5 °C 9.4 °C 1010.0 hPa WSW 24.5 km/h 41.0 km/h 93 % 0.0 mm
07:19 10.5 °C 9.4 °C 1010.0 hPa West 32.0 km/h 40.7 km/h 93 % 0.0 mm
07:24 10.5 °C 9.4 °C 1010.0 hPa WSW 32.0 km/h 32.0 km/h 93 % 0.0 mm
07:29 10.5 °C 9.4 °C 1010.0 hPa WSW 23.8 km/h 38.9 km/h 93 % 0.0 mm
07:34 10.5 °C 9.4 °C 1010.0 hPa West 20.9 km/h 38.9 km/h 93 % 0.0 mm
07:39 10.5 °C 9.4 °C 1010.0 hPa WSW 26.7 km/h 38.1 km/h 93 % 0.0 mm
07:44 10.5 °C 9.4 °C 1010.0 hPa West 36.7 km/h 38.1 km/h 93 % 0.0 mm
07:49 10.5 °C 9.2 °C 1010.0 hPa WSW 20.9 km/h 41.0 km/h 92 % 0.0 mm
07:54 10.6 °C 9.3 °C 1010.0 hPa West 40.4 km/h 41.7 km/h 92 % 0.0 mm
07:59 10.6 °C 9.3 °C 1010.0 hPa WSW 38.1 km/h 46.5 km/h 92 % 0.0 mm
08:04 10.6 °C 9.3 °C 1010.0 hPa WSW 30.9 km/h 46.5 km/h 92 % 0.0 mm
08:09 10.6 °C 9.3 °C 1010.0 hPa WSW 36.0 km/h 40.7 km/h 92 % 0.0 mm
08:14 10.6 °C 9.3 °C 1010.0 hPa WSW 20.6 km/h 40.7 km/h 92 % 0.0 mm
08:19 10.6 °C 9.3 °C 1010.0 hPa WNW 35.2 km/h 38.9 km/h 92 % 0.0 mm
08:24 10.6 °C 9.3 °C 1011.1 hPa WSW 30.2 km/h 38.1 km/h 92 % 0.0 mm
08:29 10.7 °C 9.4 °C 1011.1 hPa WSW 28.0 km/h 44.6 km/h 92 % 0.0 mm
08:34 10.7 °C 9.4 °C 1011.1 hPa WSW 25.9 km/h 44.6 km/h 92 % 0.0 mm
08:35 10.7 °C 9.4 °C 1011.1 hPa WSW 28.8 km/h 44.6 km/h 92 % 0.0 mm
08:40 10.7 °C 9.4 °C 1010.0 hPa WSW 35.2 km/h 48.9 km/h 92 % 0.0 mm
08:45 10.7 °C 9.4 °C 1010.0 hPa West 38.1 km/h 48.9 km/h 92 % 0.0 mm
08:50 10.7 °C 9.6 °C 1010.0 hPa WSW 32.0 km/h 45.7 km/h 93 % 0.0 mm
08:55 10.7 °C 9.6 °C 1011.1 hPa WSW 32.0 km/h 45.7 km/h 93 % 0.0 mm
09:00 10.8 °C 9.6 °C 1011.1 hPa West 32.0 km/h 46.0 km/h 92 % 0.0 mm
09:05 10.8 °C 9.7 °C 1011.1 hPa West 37.8 km/h 46.0 km/h 93 % 0.0 mm
09:10 10.8 °C 9.7 °C 1011.1 hPa WSW 23.3 km/h 43.1 km/h 93 % 0.0 mm
09:15 10.7 °C 9.8 °C 1011.1 hPa WSW 26.2 km/h 43.1 km/h 94 % 0.0 mm
09:20 10.7 °C 9.8 °C 1011.1 hPa West 40.4 km/h 40.4 km/h 94 % 0.0 mm
09:25 10.7 °C 9.8 °C 1011.1 hPa West 36.0 km/h 40.4 km/h 94 % 0.0 mm
09:30 10.7 °C 9.8 °C 1011.1 hPa WSW 22.7 km/h 50.4 km/h 94 % 0.0 mm
09:35 10.7 °C 9.8 °C 1011.1 hPa WSW 30.2 km/h 50.4 km/h 94 % 0.0 mm
09:40 10.7 °C 9.9 °C 1010.0 hPa WSW 38.9 km/h 42.5 km/h 95 % 0.0 mm
09:45 10.7 °C 9.9 °C 1010.0 hPa WSW 28.0 km/h 43.6 km/h 95 % 0.0 mm
09:50 10.7 °C 9.9 °C 1010.0 hPa West 42.2 km/h 43.6 km/h 95 % 0.0 mm
09:55 10.7 °C 9.9 °C 1010.0 hPa WSW 34.3 km/h 43.6 km/h 95 % 0.0 mm
10:00 10.7 °C 9.9 °C 1010.0 hPa WSW 24.8 km/h 48.3 km/h 95 % 0.0 mm
10:05 10.7 °C 9.9 °C 1010.0 hPa WSW 38.5 km/h 48.3 km/h 95 % 0.0 mm
10:10 10.7 °C 9.9 °C 1011.1 hPa West 36.7 km/h 45.7 km/h 95 % 0.0 mm
10:15 10.8 °C 9.8 °C 1011.1 hPa West 28.8 km/h 43.1 km/h 94 % 0.0 mm
10:20 10.8 °C 9.8 °C 1011.1 hPa West 19.5 km/h 43.1 km/h 94 % 0.0 mm
10:25 10.8 °C 9.8 °C 1011.1 hPa West 26.2 km/h 43.1 km/h 94 % 0.0 mm
10:30 10.9 °C 9.9 °C 1011.1 hPa WSW 23.8 km/h 43.1 km/h 94 % 0.0 mm
10:35 10.9 °C 9.9 °C 1011.1 hPa WSW 30.6 km/h 45.1 km/h 94 % 0.0 mm
10:40 10.9 °C 9.9 °C 1011.1 hPa West 24.8 km/h 45.1 km/h 94 % 0.0 mm
10:45 10.9 °C 9.9 °C 1011.1 hPa WSW 41.7 km/h 42.5 km/h 94 % 0.0 mm
10:50 10.9 °C 9.9 °C 1011.1 hPa WSW 23.3 km/h 42.5 km/h 94 % 0.0 mm
10:55 10.9 °C 9.9 °C 1011.1 hPa SSW 35.6 km/h 41.7 km/h 94 % 0.0 mm
11:00 10.9 °C 10.1 °C 1011.1 hPa West 25.3 km/h 41.4 km/h 95 % 0.0 mm
11:05 10.8 °C 10.0 °C 1011.1 hPa West 38.5 km/h 48.3 km/h 95 % 0.0 mm
11:10 10.8 °C 10.0 °C 1011.1 hPa WSW 28.8 km/h 48.3 km/h 95 % 0.0 mm
11:15 10.9 °C 10.1 °C 1011.1 hPa WSW 24.5 km/h 46.0 km/h 95 % 0.0 mm
11:20 11.0 °C 10.2 °C 1011.1 hPa WSW 26.7 km/h 44.6 km/h 95 % 0.0 mm
11:25 11.1 °C 10.3 °C 1011.1 hPa West 34.6 km/h 42.2 km/h 95 % 0.0 mm
11:30 11.2 °C 10.4 °C 1011.1 hPa SW 24.8 km/h 49.2 km/h 95 % 0.0 mm
11:35 11.2 °C 10.2 °C 1011.1 hPa WSW 33.5 km/h 49.2 km/h 94 % 0.0 mm
11:40 11.2 °C 10.2 °C 1011.1 hPa West 27.7 km/h 39.3 km/h 94 % 0.0 mm
11:45 11.3 °C 10.3 °C 1011.1 hPa West 38.5 km/h 46.5 km/h 94 % 0.0 mm
11:50 11.3 °C 10.3 °C 1011.1 hPa WSW 36.4 km/h 46.5 km/h 94 % 0.0 mm
11:55 11.4 °C 10.4 °C 1011.1 hPa WSW 28.0 km/h 48.3 km/h 94 % 0.0 mm
12:00 11.4 °C 10.6 °C 1011.1 hPa West 28.5 km/h 48.3 km/h 94 % 0.0 mm
12:05 11.4 °C 10.4 °C 1011.1 hPa West 35.2 km/h 43.9 km/h 93 % 0.0 mm
12:10 11.4 °C 10.4 °C 1011.1 hPa WSW 42.5 km/h 46.8 km/h 93 % 0.0 mm
12:15 11.4 °C 10.1 °C 1011.1 hPa West 46.5 km/h 51.2 km/h 92 % 0.0 mm
12:20 11.4 °C 10.3 °C 1011.1 hPa WSW 36.0 km/h 51.2 km/h 93 % 0.0 mm
12:25 11.4 °C 10.3 °C 1011.1 hPa WSW 40.7 km/h 46.8 km/h 93 % 0.0 mm
12:30 11.4 °C 10.3 °C 1011.1 hPa West 36.7 km/h 45.7 km/h 93 % 0.0 mm
12:35 11.4 °C 10.3 °C 1011.1 hPa WSW 31.4 km/h 45.7 km/h 93 % 0.0 mm
12:40 11.4 °C 10.3 °C 1010.0 hPa West 33.5 km/h 45.7 km/h 93 % 0.0 mm
12:45 11.3 °C 10.2 °C 1010.0 hPa WSW 38.1 km/h 46.5 km/h 93 % 0.0 mm
12:50 11.3 °C 10.2 °C 1010.0 hPa West 43.1 km/h 46.5 km/h 93 % 0.0 mm
12:55 11.3 °C 10.3 °C 1010.0 hPa West 25.6 km/h 44.6 km/h 94 % 0.0 mm
13:00 11.3 °C 10.3 °C 1010.0 hPa WSW 45.1 km/h 47.5 km/h 94 % 0.0 mm
13:05 11.2 °C 10.2 °C 1010.0 hPa West 47.9 km/h 49.2 km/h 94 % 0.0 mm
13:10 11.2 °C 10.2 °C 1010.0 hPa WSW 36.4 km/h 49.2 km/h 94 % 0.0 mm
13:15 11.2 °C 10.2 °C 1010.0 hPa West 28.5 km/h 44.6 km/h 94 % 0.0 mm
13:20 11.2 °C 10.2 °C 1010.0 hPa West 36.0 km/h 46.0 km/h 94 % 0.0 mm
13:25 11.3 °C 10.5 °C 1010.0 hPa WSW 38.5 km/h 46.0 km/h 95 % 0.0 mm
13:30 11.3 °C 10.3 °C 1010.0 hPa WSW 27.7 km/h 43.6 km/h 94 % 0.0 mm
13:35 11.3 °C 10.3 °C 1010.0 hPa WSW 47.5 km/h 47.5 km/h 94 % 0.0 mm
13:40 11.3 °C 10.3 °C 1010.0 hPa WSW 34.3 km/h 47.5 km/h 94 % 0.0 mm
13:45 11.3 °C 10.3 °C 1010.0 hPa West 31.7 km/h 52.6 km/h 94 % 0.0 mm
13:50 11.3 °C 10.3 °C 1010.0 hPa WSW 36.7 km/h 52.6 km/h 94 % 0.0 mm
13:55 11.4 °C 10.3 °C 1009.0 hPa WSW 36.0 km/h 50.0 km/h 93 % 0.0 mm
14:00 11.4 °C 10.3 °C 1009.0 hPa WSW 43.6 km/h 50.0 km/h 93 % 0.0 mm
14:05 11.4 °C 10.3 °C 1009.0 hPa West 31.7 km/h 51.2 km/h 93 % 0.0 mm
14:10 11.3 °C 10.2 °C 1009.0 hPa WSW 26.7 km/h 51.2 km/h 93 % 0.0 mm
14:15 11.3 °C 10.2 °C 1009.0 hPa WSW 23.0 km/h 52.1 km/h 93 % 0.0 mm
14:20 11.3 °C 10.2 °C 1009.0 hPa WSW 42.5 km/h 52.1 km/h 93 % 0.0 mm
14:25 11.3 °C 10.2 °C 1009.0 hPa WSW 33.5 km/h 55.8 km/h 93 % 0.0 mm
14:26 11.3 °C 10.2 °C 1009.0 hPa WSW 24.5 km/h 55.8 km/h 93 % 0.0 mm
14:31 11.3 °C 10.2 °C 1009.0 hPa WSW 36.7 km/h 55.8 km/h 93 % 0.0 mm
14:36 11.4 °C 10.3 °C 1009.0 hPa WSW 37.8 km/h 51.2 km/h 93 % 0.0 mm
14:41 11.4 °C 10.3 °C 1008.0 hPa West 36.7 km/h 48.6 km/h 93 % 0.0 mm
14:46 11.4 °C 10.4 °C 1008.0 hPa West 41.0 km/h 48.6 km/h 93 % 0.0 mm
14:51 11.4 °C 10.4 °C 1008.0 hPa WSW 38.9 km/h 45.1 km/h 93 % 0.0 mm
14:56 11.4 °C 10.3 °C 1009.0 hPa WSW 32.3 km/h 42.8 km/h 93 % 0.0 mm
15:01 11.4 °C 10.3 °C 1009.0 hPa West 42.2 km/h 52.6 km/h 93 % 0.0 mm
15:06 11.3 °C 10.2 °C 1009.0 hPa West 31.7 km/h 52.6 km/h 93 % 0.0 mm
15:11 11.3 °C 10.2 °C 1009.0 hPa WSW 43.9 km/h 48.3 km/h 93 % 0.0 mm
15:16 11.3 °C 10.2 °C 1009.0 hPa WSW 36.4 km/h 46.0 km/h 93 % 0.0 mm
15:21 11.2 °C 10.1 °C 1009.0 hPa WSW 40.7 km/h 46.0 km/h 93 % 0.0 mm
15:22 11.2 °C 10.1 °C 1009.0 hPa WSW 32.0 km/h 46.0 km/h 93 % 0.0 mm
15:27 11.2 °C 10.1 °C 1009.0 hPa WSW 21.6 km/h 48.3 km/h 93 % 0.0 mm
15:32 11.2 °C 10.1 °C 1009.0 hPa West 32.3 km/h 48.3 km/h 93 % 0.0 mm
15:37 11.2 °C 10.1 °C 1009.0 hPa WSW 43.6 km/h 49.2 km/h 93 % 0.0 mm
15:42 11.1 °C 10.0 °C 1010.0 hPa WSW 24.5 km/h 49.2 km/h 93 % 0.0 mm
15:47 11.1 °C 10.0 °C 1010.0 hPa WSW 30.6 km/h 51.8 km/h 93 % 0.0 mm
15:52 11.1 °C 10.0 °C 1010.0 hPa WSW 27.0 km/h 51.8 km/h 93 % 0.0 mm
15:57 11.1 °C 10.2 °C 1009.0 hPa WSW 25.6 km/h 48.9 km/h 94 % 0.0 mm
16:02 11.0 °C 10.1 °C 1009.0 hPa WSW 37.0 km/h 42.2 km/h 94 % 0.0 mm
16:07 10.9 °C 9.9 °C 1009.0 hPa WSW 24.5 km/h 42.2 km/h 94 % 0.0 mm
16:12 10.9 °C 10.1 °C 1008.0 hPa WSW 32.8 km/h 41.7 km/h 95 % 0.0 mm
16:17 10.8 °C 10.0 °C 1008.0 hPa WSW 33.8 km/h 43.1 km/h 95 % 0.0 mm
16:22 10.7 °C 9.9 °C 1008.0 hPa WSW 29.9 km/h 43.1 km/h 95 % 0.0 mm
16:27 10.7 °C 9.9 °C 1009.0 hPa West 20.6 km/h 43.1 km/h 95 % 0.0 mm
16:32 10.7 °C 9.9 °C 1009.0 hPa WSW 36.7 km/h 44.6 km/h 95 % 0.0 mm
16:37 10.7 °C 9.9 °C 1009.0 hPa WSW 27.4 km/h 44.6 km/h 95 % 0.0 mm
16:42 10.7 °C 9.9 °C 1009.0 hPa WSW 28.5 km/h 40.7 km/h 95 % 0.0 mm
16:47 10.7 °C 9.9 °C 1009.0 hPa West 32.8 km/h 41.4 km/h 95 % 0.0 mm
16:52 10.7 °C 9.9 °C 1009.0 hPa West 29.1 km/h 41.4 km/h 95 % 0.0 mm
16:57 10.7 °C 9.9 °C 1009.0 hPa West 29.9 km/h 43.9 km/h 95 % 0.0 mm
17:02 10.7 °C 9.9 °C 1009.0 hPa WSW 27.7 km/h 43.9 km/h 95 % 0.0 mm
17:07 10.7 °C 9.9 °C 1009.0 hPa West 41.0 km/h 47.5 km/h 95 % 0.0 mm
17:12 10.7 °C 9.9 °C 1009.0 hPa WSW 26.2 km/h 47.5 km/h 95 % 0.0 mm
17:17 10.6 °C 10.0 °C 1009.0 hPa WSW 27.7 km/h 44.6 km/h 96 % 0.0 mm
17:22 10.6 °C 10.0 °C 1009.0 hPa WSW 32.3 km/h 45.7 km/h 96 % 0.0 mm
17:27 10.6 °C 10.0 °C 1009.0 hPa WSW 23.8 km/h 45.7 km/h 96 % 0.0 mm
17:32 10.5 °C 9.9 °C 1009.0 hPa West 20.6 km/h 41.4 km/h 96 % 0.0 mm
17:37 10.5 °C 9.9 °C 1009.0 hPa WSW 24.8 km/h 42.2 km/h 96 % 0.0 mm
17:42 10.5 °C 9.9 °C 1009.0 hPa West 36.7 km/h 42.2 km/h 96 % 0.0 mm
17:47 10.5 °C 9.9 °C 1009.0 hPa WSW 27.7 km/h 41.7 km/h 96 % 0.0 mm
17:52 10.4 °C 9.8 °C 1008.0 hPa West 31.7 km/h 41.7 km/h 96 % 0.0 mm
17:57 10.4 °C 9.8 °C 1008.0 hPa WSW 35.2 km/h 37.5 km/h 96 % 0.0 mm
18:02 10.4 °C 9.8 °C 1008.0 hPa WSW 27.0 km/h 40.7 km/h 96 % 0.0 mm
18:07 10.4 °C 9.8 °C 1009.0 hPa WSW 35.6 km/h 45.7 km/h 96 % 0.0 mm
18:12 10.4 °C 9.8 °C 1009.0 hPa WSW 33.1 km/h 45.7 km/h 96 % 0.0 mm
18:17 10.4 °C 9.8 °C 1009.0 hPa WSW 28.5 km/h 44.2 km/h 96 % 0.0 mm
18:22 10.4 °C 9.8 °C 1009.0 hPa WSW 42.2 km/h 42.2 km/h 96 % 0.0 mm
18:27 10.4 °C 9.8 °C 1009.0 hPa West 49.7 km/h 49.7 km/h 96 % 0.0 mm
18:32 10.4 °C 9.8 °C 1009.0 hPa WSW 28.5 km/h 50.0 km/h 96 % 0.0 mm
18:37 10.5 °C 9.9 °C 1009.0 hPa West 36.0 km/h 50.0 km/h 96 % 0.0 mm
18:42 10.5 °C 9.9 °C 1010.0 hPa WSW 39.3 km/h 42.5 km/h 96 % 0.0 mm
18:47 10.5 °C 9.9 °C 1010.0 hPa WSW 40.7 km/h 46.0 km/h 96 % 0.0 mm
18:52 10.5 °C 9.9 °C 1010.0 hPa WSW 33.8 km/h 46.0 km/h 96 % 0.0 mm
18:57 10.5 °C 9.9 °C 1009.0 hPa West 33.5 km/h 44.6 km/h 96 % 0.0 mm
19:02 10.5 °C 9.9 °C 1009.0 hPa West 24.8 km/h 44.6 km/h 96 % 0.0 mm
19:07 10.5 °C 9.9 °C 1009.0 hPa WSW 36.7 km/h 40.7 km/h 96 % 0.0 mm
19:12 10.5 °C 9.9 °C 1008.0 hPa WSW 37.8 km/h 45.7 km/h 96 % 0.0 mm
19:17 10.5 °C 9.9 °C 1008.0 hPa WSW 32.0 km/h 45.7 km/h 96 % 0.0 mm
19:22 10.5 °C 9.9 °C 1008.0 hPa West 27.7 km/h 41.0 km/h 96 % 0.0 mm
19:27 10.5 °C 9.9 °C 1008.0 hPa West 27.7 km/h 48.6 km/h 96 % 0.0 mm
19:32 10.5 °C 9.9 °C 1008.0 hPa West 28.8 km/h 48.6 km/h 96 % 0.0 mm
19:37 10.5 °C 9.9 °C 1009.0 hPa WSW 40.7 km/h 52.6 km/h 96 % 0.0 mm
19:42 10.4 °C 9.8 °C 1009.0 hPa WSW 27.7 km/h 52.6 km/h 96 % 0.0 mm
19:47 10.4 °C 9.8 °C 1009.0 hPa WSW 19.8 km/h 38.5 km/h 96 % 0.0 mm
19:52 10.4 °C 9.8 °C 1009.0 hPa WSW 25.3 km/h 39.6 km/h 96 % 0.0 mm
19:57 10.4 °C 9.8 °C 1009.0 hPa WSW 31.7 km/h 39.6 km/h 96 % 0.0 mm
20:02 10.4 °C 9.8 °C 1009.0 hPa WSW 25.3 km/h 37.8 km/h 96 % 0.0 mm
20:07 10.4 °C 9.8 °C 1009.0 hPa West 35.2 km/h 51.8 km/h 96 % 0.0 mm
20:12 10.4 °C 9.8 °C 1009.0 hPa West 32.0 km/h 51.8 km/h 96 % 0.0 mm
20:17 10.4 °C 9.8 °C 1009.0 hPa WSW 32.0 km/h 36.7 km/h 96 % 0.0 mm
20:22 10.5 °C 9.9 °C 1009.0 hPa West 31.7 km/h 40.7 km/h 96 % 0.0 mm
20:27 10.5 °C 9.9 °C 1009.0 hPa WSW 28.0 km/h 40.7 km/h 96 % 0.0 mm
20:32 10.5 °C 9.9 °C 1009.0 hPa West 27.4 km/h 37.0 km/h 96 % 0.0 mm
20:37 10.4 °C 9.8 °C 1009.0 hPa WSW 31.7 km/h 38.1 km/h 96 % 0.0 mm
20:42 10.4 °C 9.8 °C 1009.0 hPa WSW 31.7 km/h 39.6 km/h 96 % 0.0 mm
20:47 10.4 °C 9.8 °C 1009.0 hPa West 27.4 km/h 39.6 km/h 96 % 0.0 mm
20:52 10.4 °C 9.8 °C 1009.0 hPa WSW 21.2 km/h 42.2 km/h 96 % 0.0 mm
20:57 10.4 °C 9.8 °C 1009.0 hPa WSW 28.0 km/h 42.2 km/h 96 % 0.0 mm
21:02 10.4 °C 9.8 °C 1009.0 hPa West 25.9 km/h 41.0 km/h 96 % 0.0 mm
21:07 10.4 °C 9.8 °C 1009.0 hPa WSW 35.2 km/h 40.4 km/h 96 % 0.0 mm
21:12 10.4 °C 9.8 °C 1009.0 hPa West 24.5 km/h 40.4 km/h 96 % 0.0 mm
21:17 10.4 °C 9.8 °C 1009.0 hPa WSW 38.1 km/h 44.2 km/h 96 % 0.0 mm
21:22 10.4 °C 9.8 °C 1009.0 hPa WSW 27.4 km/h 45.1 km/h 96 % 0.0 mm
21:27 10.4 °C 9.8 °C 1009.0 hPa WSW 31.4 km/h 45.1 km/h 96 % 0.0 mm
21:32 10.4 °C 9.8 °C 1009.0 hPa WSW 31.4 km/h 41.0 km/h 96 % 0.0 mm
21:37 10.4 °C 9.8 °C 1009.0 hPa WSW 31.7 km/h 46.0 km/h 96 % 0.0 mm
21:42 10.4 °C 9.8 °C 1009.0 hPa WSW 24.8 km/h 46.0 km/h 96 % 0.0 mm
21:47 10.4 °C 9.8 °C 1009.0 hPa WSW 31.7 km/h 46.0 km/h 96 % 0.0 mm
21:52 10.4 °C 9.8 °C 1009.0 hPa WSW 27.4 km/h 46.0 km/h 96 % 0.0 mm
21:57 10.4 °C 9.8 °C 1009.0 hPa WSW 36.0 km/h 44.6 km/h 96 % 0.0 mm
22:02 10.4 °C 9.8 °C 1009.0 hPa WSW 31.4 km/h 44.6 km/h 96 % 0.0 mm
22:07 10.4 °C 9.8 °C 1009.0 hPa West 24.8 km/h 38.9 km/h 96 % 0.0 mm
22:12 10.4 °C 9.8 °C 1009.0 hPa WSW 20.1 km/h 38.1 km/h 96 % 0.0 mm
22:17 10.4 °C 9.8 °C 1009.0 hPa WSW 24.5 km/h 42.2 km/h 96 % 0.0 mm
22:22 10.4 °C 9.8 °C 1009.0 hPa West 23.8 km/h 44.2 km/h 96 % 0.0 mm
22:27 10.4 °C 9.8 °C 1009.0 hPa WSW 21.2 km/h 44.2 km/h 96 % 0.0 mm
22:32 10.4 °C 9.8 °C 1009.0 hPa West 36.0 km/h 43.1 km/h 96 % 0.0 mm
22:37 10.5 °C 9.9 °C 1009.0 hPa WSW 32.0 km/h 43.1 km/h 96 % 0.0 mm
22:42 10.5 °C 9.9 °C 1009.0 hPa West 25.3 km/h 43.6 km/h 96 % 0.0 mm
22:47 10.5 °C 9.9 °C 1009.0 hPa West 24.8 km/h 43.6 km/h 96 % 0.0 mm
22:52 10.5 °C 9.9 °C 1009.0 hPa WSW 21.9 km/h 38.5 km/h 96 % 0.0 mm
22:57 10.5 °C 9.9 °C 1009.0 hPa WSW 33.1 km/h 41.0 km/h 96 % 0.0 mm
23:02 10.5 °C 9.9 °C 1009.0 hPa West 18.3 km/h 41.0 km/h 96 % 0.0 mm
23:07 10.5 °C 9.9 °C 1008.0 hPa WSW 42.8 km/h 51.8 km/h 96 % 0.0 mm
23:12 10.4 °C 9.8 °C 1008.0 hPa WSW 28.5 km/h 51.8 km/h 96 % 0.0 mm
23:17 10.4 °C 9.8 °C 1008.0 hPa WSW 28.5 km/h 47.1 km/h 96 % 0.0 mm
23:22 10.4 °C 9.8 °C 1008.0 hPa WSW 45.1 km/h 45.1 km/h 96 % 0.0 mm
23:27 10.4 °C 9.8 °C 1008.0 hPa WSW 37.5 km/h 45.1 km/h 96 % 0.0 mm
23:32 10.4 °C 9.8 °C 1008.0 hPa SW 26.2 km/h 42.8 km/h 96 % 0.0 mm
23:37 10.3 °C 9.7 °C 1008.0 hPa WSW 28.5 km/h 38.5 km/h 96 % 0.0 mm
23:39 10.3 °C 9.7 °C 1008.0 hPa West 21.2 km/h 39.3 km/h 96 % 0.0 mm
23:44 10.3 °C 9.7 °C 1008.0 hPa WSW 35.6 km/h 39.3 km/h 96 % 0.0 mm
23:49 10.3 °C 9.7 °C 1008.0 hPa WSW 37.5 km/h 40.4 km/h 96 % 0.0 mm
23:54 10.3 °C 9.7 °C 1007.0 hPa West 25.3 km/h 42.2 km/h 96 % 0.0 mm
23:59 10.3 °C 9.7 °C 1007.0 hPa WSW 24.8 km/h 45.1 km/h 96 % 0.0 mm
Le Gheer Warneton
Courtoisie de Weather Underground - 2.25 mb

Mise a jour : 17/12/2017 22:32:12
Généré par Cumulus 1.9.4 (1099)